ISS (ZARYA) 1 25544U 98067A 12041.37144819 .00010780 00000-0 14204-3 0 9816 2 25544 51.6417 43.1666 0020340 28.0318 114.4809 15.58802495758085 TIANGONG 1 1 37820U 11053A 12041.23037944 .00029830 00000-0 23358-3 0 4575 2 37820 42.7851 107.6132 0009048 43.5197 0.3786 15.70939140 21049 SOYUZ-TMA 22 1 37877U 11067A 12039.56744448 .00009719 00000-0 12893-3 0 829 2 37877 51.6426 52.2228 0020418 21.3286 71.0655 15.58759013 13480 SOYUZ-TMA 03M 1 38036U 11078A 12039.56744448 .00009719 00000-0 12893-3 0 537 2 38036 51.6426 52.2228 0020418 21.3286 71.0655 15.58759013 7650 PROGRESS-M 14M 1 38073U 12004A 12039.56744448 .00009719 00000-0 12893-3 0 268 2 38073 51.6426 52.2228 0020418 21.3286 71.0655 15.58759013 2139